Weather in Lishui

China     28°27′23″N   119°54′54″E
temp.,
°C
wind,
m/s
gust,
m/s
humid.,
%
clouds,
%
prec.,
mm/h
press.,
hPa
HPBL,
m
17 june, thu
thu1723:00+24ese0091100 0.0 100511
02:00+24ssw1196100 0.0 100511
05:00+23s1196100 0.0 100513
08:00+27sw128322 0.1 1005231
11:00+30sw136940 2.1 1005824
14:00+31n1271100 4.5 1003493
17:00+29nne2285100 2.4 100340
20:00+25e1193100 5.3 100516
18 june, fri
fri1823:00+24s009497 2.4 100511
02:00+24sw1196100 2.6 100412
05:00+23w119793 0.0 100411
08:00+26wsw1192100 0.6 1005163
11:00+29wsw1283100 3.1 1004391
14:00+28n1286100 7.4 1003151
17:00+27se1189100 0.8 1002164
20:00+24ne1194100 3.2 100317
19 june, sat
sat1923:00+23n1198100 3.9 100418
02:00+23nnw1199100 4.8 100325
05:00+23n119994 0.1 100350
08:00+25n1194100 0.4 1004292
11:00+27nnw228788 2.5 1004672
14:00+23n3396100 6.6 1003343
17:00+21nne2396100 2.1 1003315
20:00+20nne1298100 2.9 1005128
20 june, sun
sun2023:00+21ene0198100 0.0 100552
02:00+21sse1198100 0.0 100383
05:00+21se119899 0.0 100356
08:00+22sse1193100 0.0 1004305
11:00+26se1181100 0.1 1003696
14:00+24ne228798 0.4 1002480
17:00+21nne2395100 0.3 1002262
20:00+20ene1295100 0.3 1004137
21 june, mon
mon2123:00+20se2297100 0.4 1004123
02:00+19se1295100 0.4 1003108
05:00+19se1294100 0.0 100399
08:00+19ese1296100 0.8 1004148
11:00+19e1298100 6.8 1005160
14:00+19se1298100 14.5 1004144
17:00+19se1198100 1.4 100491
20:00+18se1197100 1.5 100650